Location: Clatteringshaws Loch
(55.0508°N, 4.2860°W)
Time: 04:29:13
(UTC+00:00)

Amateur Radio Satellites - All Passes

Search period start: 25 February 2017 03:59
Search period end: 26 February 2017 03:59
Location: Clatteringshaws Loch, 55.0508°N, 4.2860°W

Satellite Date Start Highest point End Downlink Frequencies (MHz)
Time Altitude Azimuth
SO-50 25 Feb 04:08:04 04:12:04 29° 15° (NNE) 04:16:01 436.795
ITAMSAT 1 25 Feb 04:15:47 04:21:03 76° 290° (WNW) 04:26:17 435.822/435.867
CUBESAT XI-V 25 Feb 04:19:50 04:24:29 65° 258° (WSW) 04:29:07 437.345
RS-15 25 Feb 04:22:44 04:32:31 30° 258° (WSW) 04:42:03 29.354- 29.394
Gurwin Techsat 1B 25 Feb 04:24:04 04:28:05 22° 308° (NW) 04:32:07 435.225
STRAND 1 25 Feb 04:31:04 04:34:02 16° 46° (NE) 04:36:59 437.568
STARS 25 Feb 04:34:14 04:38:33 56° 259° (W) 04:42:54 437.465
AO-85 25 Feb 04:47:17 04:51:11 31° 124° (ESE) 04:54:53 145.980
AO-7 25 Feb 04:50:26 04:58:49 86° 294° (WNW) 05:07:08 .
O/OREOS (USA 219) 25 Feb 04:56:57 04:58:05 11° 14° (NNE) 04:59:14 437.305
M-CUBED/EXP-1 PRIME 25 Feb 05:16:06 05:18:22 17° 261° (W) 05:20:38 437.505
CUTE-I 25 Feb 05:20:05 05:23:22 16° 85° (E) 05:26:38 437.470
SO-50 25 Feb 05:48:41 05:53:14 68° 39° (NE) 05:57:43 436.795
ITAMSAT 1 25 Feb 05:56:13 05:59:47 19° 311° (NW) 06:03:20 435.822/435.867
KAITUO 1B 25 Feb 06:01:04 06:04:15 25° 93° (E) 06:07:24 145.475/437.950
CUBESAT XI-V 25 Feb 06:01:31 06:02:48 11° 278° (W) 06:04:05 437.345
XW-2F 25 Feb 06:04:41 06:08:09 31° 95° (E) 06:11:33 145.980 - 146.000
STRAND 1 25 Feb 06:07:14 06:12:18 61° 68° (ENE) 06:17:25 437.568
DOVE 4 25 Feb 06:07:19 06:11:40 41° 97° (E) 06:16:15 437.250
XW-2D 25 Feb 06:08:54 06:12:29 35° 96° (E) 06:16:00 145.860 - 145.880
HO-68 25 Feb 06:09:17 06:12:38 14° 79° (E) 06:15:58 435.675
XW-2B 25 Feb 06:13:54 06:17:32 38° 97° (E) 06:21:07 145.730 - 145.750
BEESAT 3 25 Feb 06:18:50 06:21:37 19° 117° (ESE) 06:24:25 437.485
XW-2C 25 Feb 06:22:28 06:26:13 47° 99° (E) 06:29:55 145.795 - 145.815
XW-2A 25 Feb 06:27:01 06:27:33 10° 86° (E) 06:28:05 145.665 - 145.685
AO-85 25 Feb 06:27:10 06:31:26 57° 323° (NW) 06:35:28 145.980
O/OREOS (USA 219) 25 Feb 06:35:25 06:39:11 24° 39° (NE) 06:42:58 437.305
NUDT-PHONESAT 25 Feb 06:36:23 06:40:08 54° 100° (E) 06:43:49 437.300
LilacSat-2 25 Feb 06:38:40 06:42:34 71° 103° (ESE) 06:46:24 437.200
AO-7 25 Feb 06:43:40 06:50:45 33° 318° (NW) 06:57:49 .
CUTE 1.7 + AOD 2 25 Feb 06:55:19 06:58:12 18° 88° (E) 07:01:03 437.475
BEESAT 2 25 Feb 06:55:47 06:58:39 19° 117° (ESE) 07:01:33 435.950
CUTE-I 25 Feb 06:58:53 07:04:19 79° 105° (ESE) 07:09:43 437.470
FO-29 25 Feb 07:06:39 07:11:18 18° 34° (NE) 07:16:02 435.910
CUBEBUG 2 25 Feb 07:08:15 07:10:51 14° 84° (E) 07:13:26 437.445
PRISM 25 Feb 07:23:27 07:26:30 21° 57° (ENE) 07:29:33 437.425
UNISAT 6 25 Feb 07:25:25 07:27:45 14° 49° (NE) 07:30:05 437.425
TIGRISAT 25 Feb 07:26:04 07:28:14 13° 48° (NE) 07:30:26 435.000
SO-50 25 Feb 07:29:33 07:33:24 28° 239° (WSW) 07:37:13 436.795
KAITUO 1B 25 Feb 07:34:51 07:38:26 40° 293° (WNW) 07:41:58 145.475/437.950
XW-2F 25 Feb 07:38:50 07:42:19 33° 295° (WNW) 07:45:46 145.980 - 146.000
XW-2D 25 Feb 07:43:15 07:46:37 29° 296° (WNW) 07:49:58 145.860 - 145.880
AAUSAT CUBESAT 2 25 Feb 07:44:18 07:47:15 19° 89° (E) 07:50:12 437.432
DOVE 4 25 Feb 07:45:13 07:49:21 35° 296° (WNW) 07:53:43 437.250
UWE-3 25 Feb 07:46:12 07:49:39 20° 88° (E) 07:53:03 435.000/436.395/437.385
STRAND 1 25 Feb 07:47:33 07:51:53 27° 268° (W) 07:56:15 437.568
XW-2B 25 Feb 07:48:21 07:51:38 27° 297° (WNW) 07:54:55 145.730 - 145.750
SEEDS 25 Feb 07:52:57 07:56:54 39° 97° (E) 08:00:49 437.485
BEESAT 3 25 Feb 07:54:48 07:58:45 82° 317° (NW) 08:02:47 437.485
HO-68 25 Feb 07:55:01 08:02:04 56° 101° (ESE) 08:09:04 435.675
XW-2C 25 Feb 07:57:07 08:00:13 23° 299° (WNW) 08:03:17 145.795 - 145.815
XW-2A 25 Feb 07:57:24 08:00:54 90° 99° (E) 08:04:23 145.665 - 145.685
ZACube-1 25 Feb 08:08:26 08:11:48 20° 88° (E) 08:15:06 437.345
AO-85 25 Feb 08:09:10 08:12:33 24° 346° (NNW) 08:15:51 145.980
YUBILEINY 25 Feb 08:09:51 08:12:50 12° 62° (ENE) 08:15:49 435.215
NUDT-PHONESAT 25 Feb 08:10:56 08:13:46 20° 300° (WNW) 08:16:36 437.300
LilacSat-2 25 Feb 08:13:49 08:16:25 17° 303° (WNW) 08:19:00 437.200
O/OREOS (USA 219) 25 Feb 08:14:33 08:19:08 80° 242° (WSW) 08:23:44 437.305
ISS 25 Feb 08:25:46 08:26:39 11° 142° (SE) 08:27:33 437.550
CUTE 1.7 + AOD 2 25 Feb 08:30:17 08:34:32 70° 287° (WNW) 08:38:44 437.475
BEESAT 2 25 Feb 08:31:58 08:35:59 81° 320° (NW) 08:40:02 435.950
AO-7 25 Feb 08:36:26 08:41:10 17° 344° (NNW) 08:45:52 .
CUTE-I 25 Feb 08:39:35 08:43:53 25° 306° (NW) 08:48:11 437.470
CUBEBUG 2 25 Feb 08:43:26 08:48:14 80° 104° (ESE) 08:53:00 437.445
FO-29 25 Feb 08:47:33 08:54:30 45° 57° (ENE) 09:01:50 435.910
Tancredo 1 25 Feb 08:51:11 08:53:13 16° 147° (SSE) 08:55:15 437.200
QB50P2 25 Feb 08:52:22 08:53:20 11° 48° (NE) 08:54:19 145.880/145.840
AO-73 25 Feb 08:56:36 09:01:01 44° 98° (E) 09:05:20 145.935
PRISM 25 Feb 08:57:24 09:01:27 63° 257° (WSW) 09:05:31 437.425
AIST 2D 25 Feb 08:58:18 08:59:18 11° 54° (NE) 09:00:19 435.315
UNISAT 6 25 Feb 08:59:06 09:03:36 63° 70° (ENE) 09:08:13 437.425
TIGRISAT 25 Feb 08:59:33 09:04:02 60° 69° (ENE) 09:08:38 435.000
Oscar 11 25 Feb 09:04:00 09:08:11 44° 98° (E) 09:12:19 .
AAUSAT CUBESAT 2 25 Feb 09:19:03 09:23:08 62° 289° (WNW) 09:27:12 437.432
DELFI C3 25 Feb 09:20:46 09:23:59 24° 93° (E) 09:27:11 145.870
UWE-3 25 Feb 09:21:54 09:26:37 73° 289° (WNW) 09:31:15 435.000/436.395/437.385
SEEDS 25 Feb 09:28:50 09:32:33 31° 297° (WNW) 09:36:13 437.485
XW-2A 25 Feb 09:31:38 09:33:08 12° 305° (NW) 09:34:40 145.665 - 145.685
BEESAT 3 25 Feb 09:33:28 09:36:53 27° 339° (NNW) 09:40:22 437.485
HO-68 25 Feb 09:43:01 09:49:44 45° 304° (WNW) 09:56:25 435.675
ZACube-1 25 Feb 09:43:58 09:48:35 71° 288° (WNW) 09:53:06 437.345
AO-85 25 Feb 09:50:54 09:54:07 22° 11° (N) 09:57:17 145.980
DUCHIFAT 1 25 Feb 09:54:15 09:57:41 25° 59° (ENE) 10:01:10 145.980
O/OREOS (USA 219) 25 Feb 09:55:26 09:57:49 14° 261° (W) 10:00:12 437.305
YUBILEINY 25 Feb 09:59:02 10:07:16 47° 87° (E) 10:15:29 435.215
ISS 25 Feb 09:59:25 10:02:23 31° 161° (SSE) 10:05:21 437.550
EO-79 25 Feb 10:04:08 10:07:57 33° 63° (ENE) 10:11:47 145.935-145.965
CUTE 1.7 + AOD 2 25 Feb 10:07:34 10:09:38 13° 308° (NW) 10:11:42 437.475
BEESAT 2 25 Feb 10:10:49 10:14:17 27° 340° (NNW) 10:17:48 435.950
LO-87 25 Feb 10:12:06 10:13:40 12° 87° (E) 10:15:13 145.935 - 145.965
Oscar 19 25 Feb 10:14:45 10:16:23 11° 41° (NE) 10:18:02 437.125/150
CUBEBUG 2 25 Feb 10:20:48 10:24:21 21° 304° (NW) 10:27:55 437.445
NANOSAT C BR1 25 Feb 10:21:08 10:25:07 42° 66° (ENE) 10:29:10 145.865
POLYITAN 1 25 Feb 10:21:12 10:25:17 46° 67° (ENE) 10:29:24 437.675
QB50P2 25 Feb 10:24:06 10:28:13 51° 68° (ENE) 10:32:23 145.880/145.840
Tancredo 1 25 Feb 10:25:53 10:28:55 37° 167° (SSE) 10:31:58 437.200
AO-7 25 Feb 10:26:24 10:30:50 16° 12° (NNE) 10:35:17 .
AIST 2D 25 Feb 10:28:20 10:31:53 73° 73° (ENE) 10:35:29 435.315
FO-29 25 Feb 10:32:01 10:39:17 62° 260° (W) 10:47:06 435.910
AO-73 25 Feb 10:33:04 10:37:09 32° 298° (WNW) 10:41:09 145.935
UNISAT 6 25 Feb 10:37:08 10:40:44 22° 270° (W) 10:44:23 437.425
TIGRISAT 25 Feb 10:37:26 10:41:06 23° 270° (W) 10:44:51 435.000
Oscar 11 25 Feb 10:40:25 10:44:12 30° 298° (WNW) 10:47:57 .
BUGSAT 1 25 Feb 10:52:27 10:56:06 32° 63° (ENE) 10:59:49 437.445
DELFI C3 25 Feb 10:55:14 10:59:00 45° 292° (WNW) 11:02:45 145.870
Gurwin Techsat 1B 25 Feb 10:55:31 10:58:20 15° 45° (NE) 11:01:10 435.225
AAUSAT CUBESAT 2 25 Feb 10:56:19 10:57:50 12° 309° (NW) 10:59:20 437.432
ESTCUBE 1 25 Feb 10:59:25 11:02:59 23° 91° (E) 11:06:32 437.505/2401.250
UWE-3 25 Feb 10:59:32 11:02:19 16° 308° (NW) 11:05:06 435.000/436.395/437.385
BEESAT 3 25 Feb 11:12:34 11:15:37 20° 3° (N) 11:18:40 437.485
ZACube-1 25 Feb 11:21:29 11:24:05 15° 309° (NW) 11:26:41 437.345
VELOX 1 25 Feb 11:26:44 11:29:27 16° 87° (E) 11:32:10 145.980
DUCHIFAT 1 25 Feb 11:28:59 11:33:07 53° 259° (W) 11:37:18 145.980
AO-85 25 Feb 11:31:27 11:35:20 49° 35° (NE) 11:39:09 145.980
HO-68 25 Feb 11:31:37 11:35:52 17° 327° (NNW) 11:40:05 435.675
ISS 25 Feb 11:35:18 11:38:30 46° 181° (S) 11:41:41 437.550
SPROUT 25 Feb 11:37:04 11:39:51 17° 88° (E) 11:42:38 437.525
EO-79 25 Feb 11:39:44 11:43:41 37° 263° (W) 11:47:41 145.935-145.965
LO-87 25 Feb 11:44:01 11:47:38 79° 287° (WNW) 11:51:14 145.935 - 145.965
Oscar 19 25 Feb 11:49:41 11:54:32 43° 63° (ENE) 11:59:23 437.125/150
BEESAT 2 25 Feb 11:50:06 11:53:12 21° 3° (N) 11:56:18 435.950
YUBILEINY 25 Feb 11:55:19 12:03:58 58° 291° (WNW) 12:12:39 435.215
NANOSAT C BR1 25 Feb 11:57:18 12:00:59 29° 266° (W) 12:04:43 145.865
POLYITAN 1 25 Feb 11:57:38 12:01:16 27° 267° (W) 12:04:56 437.675
QB50P2 25 Feb 12:00:49 12:04:17 24° 268° (W) 12:07:48 145.880/145.840
Tancredo 1 25 Feb 12:01:47 12:04:54 43° 187° (S) 12:08:00 437.200
AIST 2D 25 Feb 12:03:49 12:05:36 13° 273° (W) 12:07:24 435.315
50 SAT 25 Feb 12:14:09 12:17:06 25° 95° (E) 12:20:01 437.505
AO-7 25 Feb 12:14:18 12:21:04 29° 38° (NE) 12:27:49 .
FO-29 25 Feb 12:21:22 12:25:59 17° 283° (WNW) 12:30:48 435.910
ITAMSAT 1 25 Feb 12:24:59 12:28:12 17° 47° (NE) 12:31:26 435.822/435.867
BUGSAT 1 25 Feb 12:27:38 12:31:26 36° 263° (W) 12:35:18 437.445
Gurwin Techsat 1B 25 Feb 12:32:05 12:37:16 55° 66° (ENE) 12:42:28 435.225
ESTCUBE 1 25 Feb 12:35:44 12:40:10 59° 291° (WNW) 12:44:33 437.505/2401.250
BEESAT 3 25 Feb 12:50:34 12:54:14 33° 26° (NNE) 12:57:55 437.485
DX 1 25 Feb 12:54:30 12:58:41 43° 99° (E) 13:02:51 434.975-435.025
VELOX 1 25 Feb 13:02:05 13:06:31 84° 289° (WNW) 13:10:57 145.980
UKube-1 25 Feb 13:07:07 13:11:16 42° 99° (E) 13:15:23 .
ISS 25 Feb 13:11:40 13:14:36 29° 201° (SSW) 13:17:31 437.550
SPROUT 25 Feb 13:11:59 13:16:19 78° 288° (WNW) 13:20:38 437.525
AO-85 25 Feb 13:12:04 13:15:37 33° 236° (SW) 13:19:08 145.980
LO-87 25 Feb 13:19:09 13:20:30 12° 306° (NW) 13:21:51 145.935 - 145.965
BEESAT 2 25 Feb 13:28:15 13:32:00 34° 27° (NNE) 13:35:44 435.950
Oscar 19 25 Feb 13:29:08 13:33:56 39° 263° (W) 13:38:46 437.125/150
Tancredo 1 25 Feb 13:38:08 13:40:44 22° 206° (SSW) 13:43:18 437.200
50 SAT 25 Feb 13:47:07 13:50:18 33° 294° (WNW) 13:53:27 437.505
YUBILEINY 25 Feb 13:56:58 14:03:09 20° 319° (NW) 14:09:19 435.215
ITAMSAT 1 25 Feb 14:01:39 14:06:49 66° 68° (ENE) 14:12:01 435.822/435.867
AO-7 25 Feb 14:04:24 14:12:43 73° 63° (ENE) 14:21:04 .
Gurwin Techsat 1B 25 Feb 14:12:49 14:17:30 31° 266° (W) 14:22:15 435.225
ESTCUBE 1 25 Feb 14:14:11 14:16:07 13° 312° (NW) 14:18:04 437.505/2401.250
BEESAT 3 25 Feb 14:28:08 14:32:09 67° 228° (SW) 14:36:08 437.485
DX 1 25 Feb 14:30:57 14:34:46 30° 299° (WNW) 14:38:35 434.975-435.025
VELOX 1 25 Feb 14:39:36 14:42:22 17° 307° (NW) 14:45:08 145.980
ITUPSAT 1 25 Feb 14:41:15 14:45:38 33° 95° (E) 14:49:57 437.325
UKube-1 25 Feb 14:43:24 14:47:13 31° 299° (WNW) 14:50:59 .
BEESAT 25 Feb 14:47:54 14:52:24 38° 97° (E) 14:56:51 436.000
SPROUT 25 Feb 14:49:08 14:51:35 15° 308° (NW) 14:54:02 437.525
HO-68 25 Feb 15:03:10 15:05:30 12° 20° (NNE) 15:07:50 435.675
BEESAT 2 25 Feb 15:06:01 15:10:03 65° 229° (SW) 15:14:04 435.950
MOZHAYETS 4 25 Feb 15:10:17 15:14:14 27° 92° (E) 15:18:09
CUTE-I 25 Feb 15:12:01 15:14:35 14° 43° (NE) 15:17:10 437.470
XW-2C 25 Feb 15:39:20 15:40:34 11° 52° (NE) 15:41:47 145.795 - 145.815
ITAMSAT 1 25 Feb 15:42:26 15:46:44 25° 269° (W) 15:51:04 435.822/435.867
KKS-1 25 Feb 15:42:45 15:45:36 16° 88° (E) 15:48:27 437.445
DOVE 4 25 Feb 15:44:44 15:47:09 15° 53° (NE) 15:49:38 437.250
NUDT-PHONESAT 25 Feb 15:51:22 15:52:47 12° 53° (NE) 15:54:13 437.300
LilacSat-2 25 Feb 15:54:47 15:57:06 15° 56° (NE) 15:59:27 437.200
PCSat 25 Feb 15:57:56 16:02:14 25° 111° (ESE) 16:06:34 145.827
AO-7 25 Feb 15:58:36 16:06:10 37° 265° (W) 16:13:47 .
BEESAT 3 25 Feb 16:07:25 16:09:01 12° 248° (WSW) 16:10:39 437.485
CUBESAT XI-V 25 Feb 16:09:36 16:13:01 20° 89° (E) 16:16:24 437.345
STARS 25 Feb 16:17:02 16:19:56 17° 88° (E) 16:22:49 437.465
ITUPSAT 1 25 Feb 16:19:01 16:23:36 45° 296° (WNW) 16:28:10 437.325
BEESAT 25 Feb 16:25:45 16:30:14 40° 297° (WNW) 16:34:40 436.000
RS-15 25 Feb 16:42:15 16:52:25 34° 105° (ESE) 17:02:48 29.354- 29.394
HO-68 25 Feb 16:45:13 16:50:59 27° 45° (NE) 16:56:46 435.675
BEESAT 2 25 Feb 16:45:32 16:47:05 12° 248° (WSW) 16:48:39 435.950
MOZHAYETS 4 25 Feb 16:47:10 16:51:40 51° 293° (WNW) 16:56:07
M-CUBED/EXP-1 PRIME 25 Feb 16:47:21 16:48:27 11° 95° (E) 16:49:33 437.505
KAITUO 1B 25 Feb 16:47:41 16:51:09 34° 66° (ENE) 16:54:38 145.475/437.950
CUTE-I 25 Feb 16:48:23 16:53:32 50° 64° (ENE) 16:58:43 437.470
XW-2F 25 Feb 16:52:07 16:55:46 42° 68° (ENE) 16:59:26 145.980 - 146.000
XW-2D 25 Feb 16:56:38 17:00:22 49° 69° (ENE) 17:04:07 145.860 - 145.880
XW-2B 25 Feb 17:01:38 17:05:24 53° 70° (ENE) 17:09:12 145.730 - 145.750
XW-2A 25 Feb 17:04:50 17:06:28 13° 56° (NE) 17:08:06 145.665 - 145.685
XW-2C 25 Feb 17:10:13 17:14:02 65° 72° (ENE) 17:17:54 145.795 - 145.815
NO-84 25 Feb 17:16:12 17:18:07 14° 134° (SE) 17:20:06 435.350 FM
KKS-1 25 Feb 17:18:16 17:22:46 83° 287° (WNW) 17:27:15 437.445
SEEDS 25 Feb 17:18:22 17:20:17 13° 51° (NE) 17:22:11 437.485
DOVE 4 25 Feb 17:20:05 17:24:14 86° 73° (ENE) 17:28:31 437.250
NUDT-PHONESAT 25 Feb 17:22:17 17:26:04 72° 72° (ENE) 17:29:52 437.300
LilacSat-2 25 Feb 17:26:59 17:30:53 84° 259° (W) 17:34:49 437.200
PCSat 25 Feb 17:39:40 17:45:07 83° 312° (NW) 17:50:36 145.827
CUBESAT XI-V 25 Feb 17:46:17 17:50:54 70° 288° (WNW) 17:55:27 437.345
STARS 25 Feb 17:52:23 17:56:51 80° 287° (WNW) 18:01:17 437.465
CUTE 1.7 + AOD 2 25 Feb 17:54:19 17:58:05 31° 63° (ENE) 18:01:51 437.475
ITUPSAT 1 25 Feb 17:58:57 18:00:21 11° 317° (NW) 18:01:46 437.325
YUBILEINY 25 Feb 18:02:54 18:07:05 14° 28° (NNE) 18:11:15 435.215
STRAND 1 25 Feb 18:12:13 18:14:17 12° 82° (E) 18:16:21 437.568
CUBEBUG 2 25 Feb 18:12:37 18:16:24 27° 59° (ENE) 18:20:17 437.445
M-CUBED/EXP-1 PRIME 25 Feb 18:19:47 18:23:26 81° 112° (ESE) 18:27:23 437.505
KAITUO 1B 25 Feb 18:21:49 18:25:13 30° 265° (W) 18:28:39 145.475/437.950
AO-73 25 Feb 18:24:38 18:27:24 16° 52° (NE) 18:30:12 145.935
MOZHAYETS 4 25 Feb 18:26:13 18:27:52 12° 313° (NW) 18:29:31
XW-2F 25 Feb 18:26:54 18:30:06 24° 267° (W) 18:33:19 145.980 - 146.000
CUTE-I 25 Feb 18:28:55 18:33:47 35° 265° (W) 18:38:42 437.470
HO-68 25 Feb 18:30:43 18:37:54 82° 67° (ENE) 18:45:07 435.675
Oscar 11 25 Feb 18:31:31 18:34:07 16° 53° (NE) 18:36:43 .
XW-2D 25 Feb 18:31:49 18:34:49 21° 268° (W) 18:37:52 145.860 - 145.880
XW-2A 25 Feb 18:35:20 18:38:45 83° 259° (W) 18:42:13 145.665 - 145.685
XW-2B 25 Feb 18:37:02 18:39:54 20° 269° (W) 18:42:49 145.730 - 145.750
AAUSAT CUBESAT 2 25 Feb 18:40:49 18:44:30 32° 64° (ENE) 18:48:12 437.432
XW-2C 25 Feb 18:46:08 18:48:40 17° 271° (W) 18:51:13 145.795 - 145.815
UWE-3 25 Feb 18:49:32 18:53:40 35° 63° (ENE) 18:57:53 435.000/436.395/437.385
SEEDS 25 Feb 18:51:02 18:55:14 67° 71° (ENE) 18:59:26 437.485
RS-15 25 Feb 18:51:16 19:03:25 84° 132° (SE) 19:15:52 29.354- 29.394
NO-84 25 Feb 18:51:40 18:55:03 51° 155° (SSE) 18:58:46 435.350 FM
KKS-1 25 Feb 18:55:52 18:58:42 17° 308° (NW) 19:01:31 437.445
NUDT-PHONESAT 25 Feb 18:58:17 19:00:28 15° 272° (W) 19:02:41 437.300
DOVE 4 25 Feb 19:00:28 19:02:39 14° 275° (W) 19:04:53 437.250
LilacSat-2 25 Feb 19:04:27 19:05:50 11° 275° (W) 19:07:11 437.200
ZACube-1 25 Feb 19:10:31 19:14:37 35° 63° (ENE) 19:18:48 437.345
PCSat 25 Feb 19:24:24 19:29:14 31° 336° (NNW) 19:34:06 145.827
CUBESAT XI-V 25 Feb 19:24:58 19:27:31 15° 310° (NW) 19:30:02 437.345
CUTE 1.7 + AOD 2 25 Feb 19:29:47 19:33:50 41° 263° (W) 19:37:55 437.475
STARS 25 Feb 19:29:51 19:32:33 16° 308° (NW) 19:35:15 437.465
CUBEBUG 2 25 Feb 19:48:18 19:52:45 56° 260° (W) 19:57:21 437.445
STRAND 1 25 Feb 19:49:22 19:54:32 64° 103° (ESE) 19:59:39 437.568
M-CUBED/EXP-1 PRIME 25 Feb 19:55:13 19:57:34 17° 310° (NW) 20:00:01 437.505
AO-73 25 Feb 19:58:27 20:02:57 79° 73° (ENE) 20:07:33 145.935
YUBILEINY 25 Feb 19:59:25 20:07:22 36° 58° (ENE) 20:15:15 435.215
Oscar 11 25 Feb 20:05:15 20:09:37 81° 73° (ENE) 20:14:01 .
DELFI C3 25 Feb 20:12:45 20:16:24 36° 66° (ENE) 20:20:02 145.870
AAUSAT CUBESAT 2 25 Feb 20:16:02 20:19:55 38° 263° (W) 20:23:49 437.432
HO-68 25 Feb 20:20:27 20:26:26 28° 270° (W) 20:32:28 435.675
UWE-3 25 Feb 20:25:50 20:30:05 40° 264° (W) 20:34:28 435.000/436.395/437.385
SEEDS 25 Feb 20:28:22 20:31:22 19° 271° (W) 20:34:23 437.485
NO-84 25 Feb 20:28:58 20:32:38 89° 356° (N) 20:36:39 435.350 FM
ESTCUBE 1 25 Feb 20:32:48 20:33:53 11° 46° (NE) 20:34:57 437.505/2401.250
PRISM 25 Feb 20:33:30 20:34:43 11° 85° (E) 20:35:55 437.425
ZACube-1 25 Feb 20:46:38 20:50:52 39° 264° (W) 20:55:12 437.345
LO-87 25 Feb 20:54:56 20:57:14 17° 58° (ENE) 20:59:32 145.935 - 145.965
RS-15 25 Feb 21:04:56 21:17:04 59° 342° (NNW) 21:29:18 29.354- 29.394
PCSat 25 Feb 21:09:53 21:14:12 23° 2° (N) 21:18:32 145.827
STRAND 1 25 Feb 21:29:02 21:33:23 28° 303° (WNW) 21:37:44 437.568
FO-29 25 Feb 21:34:40 21:40:24 22° 81° (E) 21:45:49 435.910
AO-73 25 Feb 21:36:43 21:39:46 18° 273° (W) 21:42:52 145.935
Oscar 11 25 Feb 21:43:36 21:46:20 16° 273° (W) 21:49:05 .
DELFI C3 25 Feb 21:47:46 21:51:16 29° 265° (W) 21:54:47 145.870
SO-50 25 Feb 21:51:00 21:54:01 17° 114° (ESE) 21:57:00 436.795
YUBILEINY 25 Feb 21:56:19 22:05:04 76° 263° (W) 22:13:43 435.215
ESTCUBE 1 25 Feb 22:05:22 22:09:42 48° 67° (ENE) 22:14:03 437.505/2401.250
NO-84 25 Feb 22:06:31 22:10:21 69° 197° (SSW) 22:14:30 435.350 FM
PRISM 25 Feb 22:06:38 22:10:44 77° 105° (ESE) 22:14:49 437.425
UNISAT 6 25 Feb 22:20:02 22:24:40 52° 100° (E) 22:29:15 437.425
TIGRISAT 25 Feb 22:20:17 22:24:54 50° 99° (E) 22:29:27 435.000
DX 1 25 Feb 22:22:28 22:25:19 17° 53° (NE) 22:28:11 434.975-435.025
LO-87 25 Feb 22:26:48 22:30:19 63° 258° (WSW) 22:33:52 145.935 - 145.965
VELOX 1 25 Feb 22:30:14 22:34:10 33° 62° (ENE) 22:38:08 145.980
UKube-1 25 Feb 22:34:13 22:36:59 17° 53° (NE) 22:39:46 .
O/OREOS (USA 219) 25 Feb 22:34:25 22:38:14 28° 107° (ESE) 22:42:05 437.305
SPROUT 25 Feb 22:36:48 22:40:33 31° 62° (ENE) 22:44:20 437.525
PCSat 25 Feb 22:54:07 22:59:06 35° 27° (NNE) 23:04:04 145.827
50 SAT 25 Feb 22:54:43 22:57:52 32° 66° (ENE) 23:01:02 437.505
DUCHIFAT 1 25 Feb 23:06:33 23:09:14 16° 88° (E) 23:11:55 145.980
EO-79 25 Feb 23:17:09 23:20:35 23° 91° (E) 23:23:59 145.935-145.965
FO-29 25 Feb 23:18:53 23:26:46 77° 104° (ESE) 23:34:00 435.910
RS-15 25 Feb 23:19:47 23:32:01 58° 15° (NNE) 23:44:04 29.354- 29.394
AIST 2D 25 Feb 23:19:53 23:23:10 33° 96° (E) 23:26:25 435.315
SO-50 25 Feb 23:29:11 23:33:50 78° 133° (SE) 23:38:26 436.795
NANOSAT C BR1 25 Feb 23:33:47 23:37:33 29° 94° (E) 23:41:17 145.865
POLYITAN 1 25 Feb 23:34:29 23:38:23 32° 95° (E) 23:42:14 437.675
QB50P2 25 Feb 23:37:25 23:41:24 35° 96° (E) 23:45:22 145.880/145.840
ESTCUBE 1 25 Feb 23:42:49 23:46:43 28° 266° (W) 23:50:38 437.505/2401.250
PRISM 25 Feb 23:42:49 23:45:35 18° 305° (NW) 23:48:21 437.425
NO-84 25 Feb 23:44:19 23:47:42 26° 217° (SW) 23:51:17 435.350 FM
YUBILEINY 25 Feb 23:54:16 00:00:25 22° 288° (WNW) 00:06:34 435.215
DX 1 25 Feb 23:56:37 00:00:58 88° 259° (W) 00:05:20 434.975-435.025
UNISAT 6 25 Feb 23:57:06 00:01:11 29° 300° (WNW) 00:05:13 437.425
TIGRISAT 25 Feb 23:57:16 00:01:24 31° 299° (WNW) 00:05:30 435.000
BUGSAT 1 26 Feb 00:02:09 00:05:24 21° 91° (E) 00:08:39 437.445
VELOX 1 26 Feb 00:06:28 00:10:35 39° 262° (W) 00:14:44 145.980
UKube-1 26 Feb 00:08:09 00:12:27 89° 73° (ENE) 00:16:48 .
SPROUT 26 Feb 00:12:20 00:16:23 41° 262° (W) 00:20:28 437.525
O/OREOS (USA 219) 26 Feb 00:13:01 00:17:25 52° 308° (NW) 00:21:53 437.305
ITUPSAT 1 26 Feb 00:19:03 00:22:19 18° 51° (NE) 00:25:35 437.325
BEESAT 26 Feb 00:25:10 00:28:38 20° 53° (NE) 00:32:06 436.000
50 SAT 26 Feb 00:28:02 00:31:03 26° 265° (W) 00:34:04 437.505
PCSat 26 Feb 00:37:36 00:43:05 84° 231° (SW) 00:48:31 145.827
DUCHIFAT 1 26 Feb 00:41:11 00:45:29 79° 287° (WNW) 00:49:45 145.980
Gurwin Techsat 1B 26 Feb 00:42:40 00:44:49 12° 82° (E) 00:46:57 435.225
MOZHAYETS 4 26 Feb 00:44:51 00:46:55 13° 48° (NE) 00:48:59
EO-79 26 Feb 00:52:27 00:56:39 55° 292° (WNW) 01:00:51 145.935-145.965
AIST 2D 26 Feb 00:53:15 00:56:21 27° 296° (WNW) 00:59:24 435.315
FO-29 26 Feb 01:04:16 01:11:13 36° 307° (NW) 01:17:45 435.910
NANOSAT C BR1 26 Feb 01:09:21 01:13:25 43° 294° (WNW) 01:17:27 145.865
POLYITAN 1 26 Feb 01:10:13 01:14:15 40° 295° (WNW) 01:18:17 437.675
SO-50 26 Feb 01:10:26 01:14:42 35° 336° (NNW) 01:18:56 436.795
QB50P2 26 Feb 01:13:17 01:17:13 36° 296° (WNW) 01:21:08 145.880/145.840
Oscar 19 26 Feb 01:32:45 01:37:40 44° 98° (E) 01:42:33 437.125/150
RS-15 26 Feb 01:33:21 01:45:50 88° 226° (SW) 01:57:55 29.354- 29.394
DX 1 26 Feb 01:35:32 01:37:49 14° 273° (W) 01:40:07 434.975-435.025
BUGSAT 1 26 Feb 01:36:56 01:41:08 59° 290° (WNW) 01:45:19 437.445
UKube-1 26 Feb 01:46:47 01:49:08 14° 273° (W) 01:51:31 .
CUBESAT XI-V 26 Feb 01:47:14 01:47:25 10° 45° (NE) 01:47:36 437.345
ITUPSAT 1 26 Feb 01:54:41 01:59:31 83° 70° (ENE) 02:04:22 437.325
O/OREOS (USA 219) 26 Feb 01:55:03 01:57:53 16° 331° (NNW) 02:00:45 437.305
AO-7 26 Feb 01:59:47 02:03:45 14° 78° (ENE) 02:07:42 .
BEESAT 26 Feb 02:01:03 02:05:52 87° 255° (WSW) 02:10:43 436.000
ITAMSAT 1 26 Feb 02:08:39 02:11:12 13° 83° (E) 02:13:44 435.822/435.867
DUCHIFAT 1 26 Feb 02:18:04 02:20:31 15° 307° (NW) 02:22:58 145.980
MOZHAYETS 4 26 Feb 02:18:38 02:23:10 57° 69° (ENE) 02:27:45
Gurwin Techsat 1B 26 Feb 02:20:34 02:25:53 63° 102° (ESE) 02:31:09 435.225
PCSat 26 Feb 02:21:54 02:25:46 20° 252° (WSW) 02:29:38 145.827
EO-79 26 Feb 02:30:09 02:31:34 11° 311° (NW) 02:33:00 145.935-145.965
KKS-1 26 Feb 02:47:03 02:51:05 36° 63° (ENE) 02:55:09 437.445
FO-29 26 Feb 02:50:11 02:54:08 15° 331° (NNW) 02:58:01 435.910
SO-50 26 Feb 02:52:28 02:56:17 25° 1° (N) 03:00:02 436.795
Oscar 19 26 Feb 03:12:15 03:16:58 38° 299° (WNW) 03:21:40 437.125/150
BUGSAT 1 26 Feb 03:14:03 03:15:41 12° 310° (NW) 03:17:19 437.445
CUBESAT XI-V 26 Feb 03:19:19 03:23:42 43° 66° (ENE) 03:28:06 437.345
STARS 26 Feb 03:19:53 03:23:53 35° 63° (ENE) 03:27:55 437.465
ITUPSAT 1 26 Feb 03:34:42 03:37:58 18° 272° (W) 03:41:17 437.325
AO-85 26 Feb 03:35:05 03:36:38 12° 113° (ESE) 03:38:09 145.980
M-CUBED/EXP-1 PRIME 26 Feb 03:38:48 03:41:54 42° 61° (ENE) 03:45:04 437.505
BEESAT 26 Feb 03:41:29 03:44:23 16° 274° (W) 03:47:17 436.000
ITAMSAT 1 26 Feb 03:46:25 03:51:41 69° 104° (ESE) 03:56:55 435.822/435.867
